Adelanto, California, United States (92301)
Lat: 34.58N, Lon: 117.41W
Wx Zone: CAZ060
Local Info
Past Weather Observations for Yesterday

NOTE: This archive is for the closest National Weather Service station to Adelanto. Information may differ from the station used for current weather conditions.

Click here for Long-term Archive

Time Weather Temperature Dewpoint Humidity Pressure Winds Precip Visibility
23:55
Clear
55°F / 13°C 32°F / 0°C 41% 30.09 in
(1019 mb)
S 8.1 mph
(S 13 kph)
- 10SM
23:35
Clear
57°F / 14°C 28°F / -2°C 33% 30.09 in
(1019 mb)
S 5.8 mph
(S 9 kph)
- 10SM
23:15
Clear
61°F / 16°C 28°F / -2°C 29% 30.09 in
(1019 mb)
Calm - 10SM
22:55
Clear
61°F / 16°C 28°F / -2°C 29% 30.09 in
(1019 mb)
Calm - 10SM
22:35
Clear
61°F / 16°C 30°F / -1°C 31% 30.09 in
(1019 mb)
Calm - 10SM
22:15
Clear
61°F / 16°C 27°F / -3°C 27% 30.09 in
(1019 mb)
SW 4.6 mph
(SW 7 kph)
- 10SM
21:55
Clear
63°F / 17°C 28°F / -2°C 27% 30.09 in
(1019 mb)
SW 5.8 mph
(SW 9 kph)
- 10SM
21:35
Clear
64°F / 18°C 28°F / -2°C 26% 30.09 in
(1019 mb)
SW 5.8 mph
(SW 9 kph)
- 10SM
21:15
Clear
66°F / 19°C 30°F / -1°C 26% 30.09 in
(1019 mb)
SSW 8.1 mph
(SSW 13 kph)
- 10SM
20:55
Clear
66°F / 19°C 27°F / -3°C 22% 30.09 in
(1019 mb)
SW 5.8 mph
(SW 9 kph)
- 10SM
20:35
Clear
68°F / 20°C 28°F / -2°C 23% 30.09 in
(1019 mb)
SW 5.8 mph
(SW 9 kph)
- 10SM
20:15
Clear
70°F / 21°C 21°F / -6°C 16% 30.06 in
(1018 mb)
W 8.1 mph
(W 13 kph)
- 10SM
19:55
Clear
72°F / 22°C 21°F / -6°C 15% 30.06 in
(1018 mb)
W 6.9 mph
(W 11 kph)
- 10SM
19:35
Clear
72°F / 22°C 21°F / -6°C 15% 30.06 in
(1018 mb)
SW 5.8 mph
(SW 9 kph)
- 10SM
19:15
Clear
73°F / 23°C 23°F / -5°C 15% 30.06 in
(1018 mb)
W 5.8 mph
(W 9 kph)
- 10SM
18:55
Clear
73°F / 23°C 19°F / -7°C 13% 30.04 in
(1017 mb)
SSW 11.5 mph
(SSW 19 kph)
- 10SM
18:35
Clear
75°F / 24°C 18°F / -8°C 11% 30.04 in
(1017 mb)
S 12.7 mph
(S 20 kph)
- 10SM
18:15
Clear
75°F / 24°C 18°F / -8°C 11% 30.01 in
(1016 mb)
S 15 mph
(S 24 kph)
- 10SM
17:55
Clear
79°F / 26°C 18°F / -8°C 10% 30.01 in
(1016 mb)
S 13.8 mph
(S 22 kph)
- 10SM
17:35
Clear
81°F / 27°C 16°F / -9°C 9% 30.01 in
(1016 mb)
SSE 18.4 mph
(SSE 30 kph)
- 10SM
17:15
Clear
82°F / 28°C 18°F / -8°C 9% 30.01 in
(1016 mb)
S 15 mph
(S 24 kph)
- 10SM
16:55
Clear
82°F / 28°C 18°F / -8°C 9% 30.01 in
(1016 mb)
S 13.8 mph
(S 22 kph)
- 10SM
16:35
Clear
84°F / 29°C 16°F / -9°C 8% 30.01 in
(1016 mb)
S 12.7 mph
(S 20 kph)
- 10SM
16:15
Clear
84°F / 29°C 14°F / -10°C 7% 30.01 in
(1016 mb)
SSE 12.7 mph
(SSE 20 kph)
- 10SM
15:55
Clear
84°F / 29°C 18°F / -8°C 8% 30.01 in
(1016 mb)
S 6.9 mph
(S 11 kph)
- 10SM
15:35
Clear
86°F / 30°C 18°F / -8°C 8% 30.01 in
(1016 mb)
S 10.4 mph
(S 17 kph)
- 10SM
15:15
Clear
86°F / 30°C 18°F / -8°C 8% 30.01 in
(1016 mb)
SSE 11.5 mph
(SSE 19 kph)
- 10SM
14:55
Clear
86°F / 30°C 18°F / -8°C 8% 30.04 in
(1017 mb)
SSE 8.1 mph
(SSE 13 kph)
- 10SM
14:35
Clear
86°F / 30°C 18°F / -8°C 8% 30.04 in
(1017 mb)
E 3.5 mph
(E 6 kph)
- 10SM
14:15
Clear
86°F / 30°C 18°F / -8°C 8% 30.04 in
(1017 mb)
SE 4.6 mph
(SE 7 kph)
- 10SM
13:55
Clear
84°F / 29°C 19°F / -7°C 9% 30.04 in
(1017 mb)
Calm - 10SM
13:35
Clear
84°F / 29°C 21°F / -6°C 10% 30.06 in
(1018 mb)
Calm - 10SM
13:15
Clear
82°F / 28°C 23°F / -5°C 11% 30.06 in
(1018 mb)
NE 5.8 mph
(NE 9 kph)
- 10SM
12:55
Clear
82°F / 28°C 23°F / -5°C 11% 30.06 in
(1018 mb)
NE 8.1 mph
(NE 13 kph)
- 10SM
12:35
Clear
82°F / 28°C 25°F / -4°C 12% 30.09 in
(1019 mb)
NE 4.6 mph
(NE 7 kph)
- 10SM
12:15
Clear
81°F / 27°C 23°F / -5°C 12% 30.09 in
(1019 mb)
Calm - 10SM
11:55
Clear
81°F / 27°C 23°F / -5°C 12% 30.09 in
(1019 mb)
NE 6.9 mph
(NE 11 kph)
- 10SM
11:35
Clear
79°F / 26°C 21°F / -6°C 12% 30.12 in
(1020 mb)
WNW 3.5 mph
(WNW 6 kph)
- 10SM
11:15
Clear
79°F / 26°C 21°F / -6°C 12% 30.12 in
(1020 mb)
NNW 3.5 mph
(NNW 6 kph)
- 10SM
10:55
Clear
77°F / 25°C 19°F / -7°C 11% 30.12 in
(1020 mb)
Calm - 10SM
10:35
Clear
75°F / 24°C 21°F / -6°C 13% 30.12 in
(1020 mb)
Calm - 10SM
10:15
Clear
73°F / 23°C 21°F / -6°C 14% 30.12 in
(1020 mb)
Calm - 10SM
09:55
Clear
73°F / 23°C 25°F / -4°C 16% 30.15 in
(1021 mb)
E 3.5 mph
(E 6 kph)
- 10SM
09:35
Clear
72°F / 22°C 27°F / -3°C 19% 30.15 in
(1021 mb)
Calm - 10SM
09:15
Clear
70°F / 21°C 27°F / -3°C 20% 30.15 in
(1021 mb)
SE 3.5 mph
(SE 6 kph)
- 10SM
08:55
Clear
68°F / 20°C 27°F / -3°C 21% 30.15 in
(1021 mb)
SSE 3.5 mph
(SSE 6 kph)
- 10SM
08:35
Clear
66°F / 19°C 28°F / -2°C 24% 30.15 in
(1021 mb)
Calm - 10SM
08:15
Clear
64°F / 18°C 27°F / -3°C 24% 30.15 in
(1021 mb)
SSE 5.8 mph
(SSE 9 kph)
- 10SM
07:55
Clear
63°F / 17°C 27°F / -3°C 25% 30.15 in
(1021 mb)
SSE 5.8 mph
(SSE 9 kph)
- 10SM
07:35
Clear
61°F / 16°C 25°F / -4°C 25% 30.15 in
(1021 mb)
SSE 8.1 mph
(SSE 13 kph)
- 10SM
07:15
Clear
57°F / 14°C 25°F / -4°C 29% 30.15 in
(1021 mb)
SSE 9.2 mph
(SSE 15 kph)
- 10SM
06:55
Clear
55°F / 13°C 25°F / -4°C 31% 30.15 in
(1021 mb)
SSE 6.9 mph
(SSE 11 kph)
- 10SM
06:35
Clear
54°F / 12°C 25°F / -4°C 33% 30.15 in
(1021 mb)
SSE 8.1 mph
(SSE 13 kph)
- 10SM
06:15
Clear
48°F / 9°C 21°F / -6°C 34% 30.12 in
(1020 mb)
SSE 4.6 mph
(SSE 7 kph)
- 10SM
05:55
Clear
48°F / 9°C 21°F / -6°C 34% 30.12 in
(1020 mb)
S 6.9 mph
(S 11 kph)
- 10SM
05:35
Clear
46°F / 8°C 21°F / -6°C 37% 30.12 in
(1020 mb)
S 6.9 mph
(S 11 kph)
- 10SM
05:15
Clear
48°F / 9°C 21°F / -6°C 34% 30.12 in
(1020 mb)
S 4.6 mph
(S 7 kph)
- 10SM
04:55
Clear
50°F / 10°C 21°F / -6°C 32% 30.12 in
(1020 mb)
S 5.8 mph
(S 9 kph)
- 10SM
04:35
Clear
52°F / 11°C 23°F / -5°C 32% 30.12 in
(1020 mb)
Calm - 10SM
04:15
Clear
50°F / 10°C 21°F / -6°C 32% 30.09 in
(1019 mb)
SW 5.8 mph
(SW 9 kph)
- 10SM
03:55
Clear
52°F / 11°C 23°F / -5°C 32% 30.09 in
(1019 mb)
S 3.5 mph
(S 6 kph)
- 10SM
03:35
Clear
50°F / 10°C 21°F / -6°C 32% 30.09 in
(1019 mb)
S 3.5 mph
(S 6 kph)
- 10SM
03:15
Clear
54°F / 12°C 23°F / -5°C 30% 30.09 in
(1019 mb)
S 3.5 mph
(S 6 kph)
- 10SM
02:55
Clear
52°F / 11°C 21°F / -6°C 30% 30.09 in
(1019 mb)
S 4.6 mph
(S 7 kph)
- 10SM
02:35
Clear
52°F / 11°C 21°F / -6°C 30% 30.09 in
(1019 mb)
S 3.5 mph
(S 6 kph)
- 10SM
02:15
Clear
54°F / 12°C 21°F / -6°C 28% 30.09 in
(1019 mb)
S 3.5 mph
(S 6 kph)
- 10SM
01:55
Clear
50°F / 10°C 21°F / -6°C 32% 30.09 in
(1019 mb)
SW 3.5 mph
(SW 6 kph)
- 10SM
01:35
Clear
52°F / 11°C 21°F / -6°C 30% 30.09 in
(1019 mb)
SW 3.5 mph
(SW 6 kph)
- 10SM
01:15
Clear
50°F / 10°C 21°F / -6°C 32% 30.12 in
(1020 mb)
S 3.5 mph
(S 6 kph)
- 10SM
00:55
Clear
54°F / 12°C 21°F / -6°C 28% 30.12 in
(1020 mb)
SSW 3.5 mph
(SSW 6 kph)
- 10SM
00:35
Clear
54°F / 12°C 21°F / -6°C 28% 30.12 in
(1020 mb)
SSW 4.6 mph
(SSW 7 kph)
- 10SM
00:15
Clear
54°F / 12°C 21°F / -6°C 28% 30.12 in
(1020 mb)
SSW 5.8 mph
(SSW 9 kph)
- 10SM
Time Weather Temperature Dewpoint Humidity Pressure Winds Precip Visibility


Weather for websites

WeatherForYou.com, LLC is not responsible for any damages or problems caused by this service. Current weather conditions are obtained from the closest station including government and personal stations which may have varying degrees of accuracy. Weather forecasts are derived from the NOAA NDFD. Like all things, this site belongs to Jesus Christ... He just trusts me to maintain it. If you have any questions or comments email webmaster@weatherforyou.com

Copyright © 2015, WeatherForYou.com LLC. All rights reserved.